Year,Month,Day,Hour,Minute,Value (Times are PST for temperature in C)
2014,05,01,00,00,13.50
2014,05,01,00,01,13.50
2014,05,01,00,02,13.50
2014,05,01,00,03,13.50
2014,05,01,00,04,13.50
2014,05,01,00,05,13.50
2014,05,01,00,06,13.60
2014,05,01,00,07,13.60
2014,05,01,00,08,13.60
2014,05,01,00,09,13.70
2014,05,01,00,10,13.70
2014,05,01,00,11,13.70
2014,05,01,00,12,13.70
2014,05,01,00,13,13.70
2014,05,01,00,14,13.80
2014,05,01,00,15,13.80
2014,05,01,00,16,13.80
2014,05,01,00,17,13.80
2014,05,01,00,18,13.80
2014,05,01,00,19,13.90
2014,05,01,00,20,13.90
2014,05,01,00,21,13.90
2014,05,01,00,22,13.90
2014,05,01,00,23,13.90
2014,05,01,00,24,14.00
2014,05,01,00,25,14.00
2014,05,01,00,26,14.00
2014,05,01,00,27,14.00
2014,05,01,00,28,14.00
2014,05,01,00,29,14.00
2014,05,01,00,30,14.00
2014,05,01,00,31,14.00
2014,05,01,00,32,14.00
2014,05,01,00,33,14.00
2014,05,01,00,34,13.90
2014,05,01,00,35,13.90
2014,05,01,00,36,13.90
2014,05,01,00,37,13.80
2014,05,01,00,38,13.80
2014,05,01,00,39,13.80
2014,05,01,00,40,13.70
2014,05,01,00,41,13.70
2014,05,01,00,42,13.70
2014,05,01,00,43,13.70
2014,05,01,00,44,13.60
2014,05,01,00,45,13.60
2014,05,01,00,46,13.60
2014,05,01,00,47,13.50
2014,05,01,00,48,13.50
2014,05,01,00,49,13.50
2014,05,01,00,50,13.40
2014,05,01,00,51,13.40
2014,05,01,00,52,13.30
2014,05,01,00,53,13.30
2014,05,01,00,54,13.30
2014,05,01,00,55,13.30
2014,05,01,00,56,13.30
2014,05,01,00,57,13.20
2014,05,01,00,58,13.20
2014,05,01,00,59,13.20
2014,05,01,01,00,13.10
2014,05,01,01,01,13.10
2014,05,01,01,02,13.10
2014,05,01,01,03,13.10
2014,05,01,01,04,13.00
2014,05,01,01,05,13.00
2014,05,01,01,06,13.00
2014,05,01,01,07,13.00
2014,05,01,01,08,13.10
2014,05,01,01,09,13.10
2014,05,01,01,10,13.10
2014,05,01,01,11,13.10
2014,05,01,01,12,13.10
2014,05,01,01,13,13.10
2014,05,01,01,14,13.10
2014,05,01,01,15,13.10
2014,05,01,01,16,13.00
2014,05,01,01,17,13.00
2014,05,01,01,18,12.90
2014,05,01,01,19,12.80
2014,05,01,01,20,12.70
2014,05,01,01,21,12.60
2014,05,01,01,22,12.60
2014,05,01,01,23,12.50
2014,05,01,01,24,12.50
2014,05,01,01,25,12.50
2014,05,01,01,26,12.40
2014,05,01,01,27,12.40
2014,05,01,01,28,12.40
2014,05,01,01,29,12.40
2014,05,01,01,30,12.40
2014,05,01,01,31,12.40
2014,05,01,01,32,12.40
2014,05,01,01,33,12.40
2014,05,01,01,34,12.30
2014,05,01,01,35,12.30
2014,05,01,01,36,12.30
2014,05,01,01,37,12.30
2014,05,01,01,38,12.30
2014,05,01,01,39,12.30
2014,05,01,01,40,12.20
2014,05,01,01,41,12.20
2014,05,01,01,42,12.20
2014,05,01,01,43,12.20
2014,05,01,01,44,12.20
2014,05,01,01,45,12.20
2014,05,01,01,46,12.20
2014,05,01,01,47,12.10
2014,05,01,01,48,12.10
2014,05,01,01,49,12.10
2014,05,01,01,50,12.10
2014,05,01,01,51,12.10
2014,05,01,01,52,12.10
2014,05,01,01,53,12.10
2014,05,01,01,54,12.10
2014,05,01,01,55,12.10
2014,05,01,01,56,12.10
2014,05,01,01,57,12.10
2014,05,01,01,58,12.10
2014,05,01,01,59,12.10
2014,05,01,02,00,12.10
2014,05,01,02,01,12.10
2014,05,01,02,02,12.10
2014,05,01,02,03,12.10
2014,05,01,02,04,12.10
2014,05,01,02,05,12.10
2014,05,01,02,06,12.00
2014,05,01,02,07,12.00
2014,05,01,02,08,12.00
2014,05,01,02,09,12.00
2014,05,01,02,10,12.00
2014,05,01,02,11,12.00
2014,05,01,02,12,12.00
2014,05,01,02,13,11.90
2014,05,01,02,14,11.90
2014,05,01,02,15,11.90
2014,05,01,02,16,11.90
2014,05,01,02,17,11.90
2014,05,01,02,18,11.90
2014,05,01,02,19,11.80
2014,05,01,02,20,11.80
2014,05,01,02,21,11.80
2014,05,01,02,22,11.80
2014,05,01,02,23,11.80
2014,05,01,02,24,11.80
2014,05,01,02,25,11.90
2014,05,01,02,26,11.90
2014,05,01,02,27,11.90
2014,05,01,02,28,11.90
2014,05,01,02,29,11.90
2014,05,01,02,30,11.90
2014,05,01,02,31,11.90
2014,05,01,02,32,11.90
2014,05,01,02,33,11.90
2014,05,01,02,34,11.90
2014,05,01,02,35,11.90
2014,05,01,02,36,11.90
2014,05,01,02,37,11.90
2014,05,01,02,38,11.90
2014,05,01,02,39,11.90
2014,05,01,02,40,11.90
2014,05,01,02,41,11.90
2014,05,01,02,42,11.90
2014,05,01,02,43,11.90
2014,05,01,02,44,11.90
2014,05,01,02,45,11.90
2014,05,01,02,46,11.90
2014,05,01,02,47,11.90
2014,05,01,02,48,11.90
2014,05,01,02,49,11.90
2014,05,01,02,50,11.90
2014,05,01,02,51,11.80
2014,05,01,02,52,11.80
2014,05,01,02,53,11.80
2014,05,01,02,54,11.80
2014,05,01,02,55,11.80
2014,05,01,02,56,11.80
2014,05,01,02,57,11.80
2014,05,01,02,58,11.70
2014,05,01,02,59,11.70
2014,05,01,03,00,11.70
2014,05,01,03,01,11.60
2014,05,01,03,02,11.60
2014,05,01,03,03,11.60
2014,05,01,03,04,11.60
2014,05,01,03,05,11.60
2014,05,01,03,06,11.60
2014,05,01,03,07,11.60
2014,05,01,03,08,11.60
2014,05,01,03,09,11.60
2014,05,01,03,10,11.60
2014,05,01,03,11,11.70
2014,05,01,03,12,11.70
2014,05,01,03,13,11.80
2014,05,01,03,14,11.80
2014,05,01,03,15,11.80
2014,05,01,03,16,11.80
2014,05,01,03,17,11.80
2014,05,01,03,18,11.80
2014,05,01,03,19,11.80
2014,05,01,03,20,11.80
2014,05,01,03,21,11.80
2014,05,01,03,22,11.80
2014,05,01,03,23,11.80
2014,05,01,03,24,11.80
2014,05,01,03,25,11.80
2014,05,01,03,26,11.80
2014,05,01,03,27,11.80
2014,05,01,03,28,11.80
2014,05,01,03,29,11.90
2014,05,01,03,30,11.90
2014,05,01,03,31,12.00
2014,05,01,03,32,12.10
2014,05,01,03,33,12.20
2014,05,01,03,34,12.20
2014,05,01,03,35,12.30
2014,05,01,03,36,12.30
2014,05,01,03,37,12.30
2014,05,01,03,38,12.30
2014,05,01,03,39,12.30
2014,05,01,03,40,12.30
2014,05,01,03,41,12.40
2014,05,01,03,42,12.40
2014,05,01,03,43,12.40
2014,05,01,03,44,12.40
2014,05,01,03,45,12.40
2014,05,01,03,46,12.40
2014,05,01,03,47,12.40
2014,05,01,03,48,12.40
2014,05,01,03,49,12.50
2014,05,01,03,50,12.50
2014,05,01,03,51,12.50
2014,05,01,03,52,12.60
2014,05,01,03,53,12.60
2014,05,01,03,54,12.70
2014,05,01,03,55,12.80
2014,05,01,03,56,12.80
2014,05,01,03,57,12.80
2014,05,01,03,58,12.80
2014,05,01,03,59,12.80
2014,05,01,04,00,12.80
2014,05,01,04,01,12.80
2014,05,01,04,02,12.80
2014,05,01,04,03,12.80
2014,05,01,04,04,12.80
2014,05,01,04,05,12.80
2014,05,01,04,06,12.80
2014,05,01,04,07,12.80
2014,05,01,04,08,12.80
2014,05,01,04,09,12.80
2014,05,01,04,10,12.70
2014,05,01,04,11,12.70
2014,05,01,04,12,12.70
2014,05,01,04,13,12.70
2014,05,01,04,14,12.70
2014,05,01,04,15,12.70
2014,05,01,04,16,12.70
2014,05,01,04,17,12.70
2014,05,01,04,18,12.80
2014,05,01,04,19,12.90
2014,05,01,04,20,13.10
2014,05,01,04,21,13.30
2014,05,01,04,22,13.40
2014,05,01,04,23,13.60
2014,05,01,04,24,13.70
2014,05,01,04,25,13.70
2014,05,01,04,26,13.80
2014,05,01,04,27,13.80
2014,05,01,04,28,13.90
2014,05,01,04,29,13.90
2014,05,01,04,30,13.90
2014,05,01,04,31,13.90
2014,05,01,04,32,13.90
2014,05,01,04,33,13.80
2014,05,01,04,34,13.80
2014,05,01,04,35,13.80
2014,05,01,04,36,13.80
2014,05,01,04,37,13.70
2014,05,01,04,38,13.70
2014,05,01,04,39,13.70
2014,05,01,04,40,13.70
2014,05,01,04,41,13.70
2014,05,01,04,42,13.70
2014,05,01,04,43,13.70
2014,05,01,04,44,13.70
2014,05,01,04,45,13.70
2014,05,01,04,46,13.70
2014,05,01,04,47,13.70
2014,05,01,04,48,13.70
2014,05,01,04,49,13.70
2014,05,01,04,50,13.70
2014,05,01,04,51,13.60
2014,05,01,04,52,13.60
2014,05,01,04,53,13.60
2014,05,01,04,54,13.50
2014,05,01,04,55,13.50
2014,05,01,04,56,13.50
2014,05,01,04,57,13.50
2014,05,01,04,58,13.40
2014,05,01,04,59,13.40
2014,05,01,05,00,13.40
2014,05,01,05,01,13.40
2014,05,01,05,02,13.30
2014,05,01,05,03,13.30
2014,05,01,05,04,13.30
2014,05,01,05,05,13.30
2014,05,01,05,06,13.30
2014,05,01,05,07,13.30
2014,05,01,05,08,13.30
2014,05,01,05,09,13.30
2014,05,01,05,10,13.20
2014,05,01,05,11,13.20
2014,05,01,05,12,13.20
2014,05,01,05,13,13.20
2014,05,01,05,14,13.20
2014,05,01,05,15,13.10
2014,05,01,05,16,13.10
2014,05,01,05,17,13.10
2014,05,01,05,18,13.10
2014,05,01,05,19,13.00
2014,05,01,05,20,13.00
2014,05,01,05,21,13.00
2014,05,01,05,22,12.90
2014,05,01,05,23,12.90
2014,05,01,05,24,12.90
2014,05,01,05,25,12.80
2014,05,01,05,26,12.80
2014,05,01,05,27,12.80
2014,05,01,05,28,12.80
2014,05,01,05,29,12.80
2014,05,01,05,30,12.80
2014,05,01,05,31,12.80
2014,05,01,05,32,12.70
2014,05,01,05,33,12.70
2014,05,01,05,34,12.70
2014,05,01,05,35,12.60
2014,05,01,05,36,12.60
2014,05,01,05,37,12.50
2014,05,01,05,38,12.50
2014,05,01,05,39,12.50
2014,05,01,05,40,12.40
2014,05,01,05,41,12.40
2014,05,01,05,42,12.30
2014,05,01,05,43,12.30
2014,05,01,05,44,12.30
2014,05,01,05,45,12.30
2014,05,01,05,46,12.30
2014,05,01,05,47,12.30
2014,05,01,05,48,12.30
2014,05,01,05,49,12.30
2014,05,01,05,50,12.30
2014,05,01,05,51,12.30
2014,05,01,05,52,12.30
2014,05,01,05,53,12.30
2014,05,01,05,54,12.30
2014,05,01,05,55,12.30
2014,05,01,05,56,12.40
2014,05,01,05,57,12.40
2014,05,01,05,58,12.40
2014,05,01,05,59,12.50
2014,05,01,06,00,12.50
2014,05,01,06,01,12.50
2014,05,01,06,02,12.60
2014,05,01,06,03,12.60
2014,05,01,06,04,12.60
2014,05,01,06,05,12.70
2014,05,01,06,06,12.70
2014,05,01,06,07,12.70
2014,05,01,06,08,12.70
2014,05,01,06,09,12.70
2014,05,01,06,10,12.70
2014,05,01,06,11,12.70
2014,05,01,06,12,12.70
2014,05,01,06,13,12.70
2014,05,01,06,14,12.70
2014,05,01,06,15,12.70
2014,05,01,06,16,12.70
2014,05,01,06,17,12.70
2014,05,01,06,18,12.70
2014,05,01,06,19,12.70
2014,05,01,06,20,12.70
2014,05,01,06,21,12.70
2014,05,01,06,22,12.70
2014,05,01,06,23,12.70
2014,05,01,06,24,12.80
2014,05,01,06,25,12.80
2014,05,01,06,26,12.80
2014,05,01,06,27,12.80
2014,05,01,06,28,12.80
2014,05,01,06,29,12.80
2014,05,01,06,30,12.80
2014,05,01,06,31,12.90
2014,05,01,06,32,12.90
2014,05,01,06,33,13.00
2014,05,01,06,34,13.00
2014,05,01,06,35,13.10
2014,05,01,06,36,13.10
2014,05,01,06,37,13.20
2014,05,01,06,38,13.30
2014,05,01,06,39,13.40
2014,05,01,06,40,13.50
2014,05,01,06,41,13.60
2014,05,01,06,42,13.70
2014,05,01,06,43,13.80
2014,05,01,06,44,13.90
2014,05,01,06,45,14.00
2014,05,01,06,46,14.10
2014,05,01,06,47,14.20
2014,05,01,06,48,14.30
2014,05,01,06,49,14.40
2014,05,01,06,50,14.50
2014,05,01,06,51,14.50
2014,05,01,06,52,14.60
2014,05,01,06,53,14.70
2014,05,01,06,54,14.70
2014,05,01,06,55,14.80
2014,05,01,06,56,14.80
2014,05,01,06,57,14.90
2014,05,01,06,58,14.90
2014,05,01,06,59,15.00
2014,05,01,07,00,15.00
2014,05,01,07,01,15.00
2014,05,01,07,02,15.10
2014,05,01,07,03,15.10
2014,05,01,07,04,15.20
2014,05,01,07,05,15.20
2014,05,01,07,06,15.30
2014,05,01,07,07,15.30
2014,05,01,07,08,15.30
2014,05,01,07,09,15.30
2014,05,01,07,10,15.30
2014,05,01,07,11,15.30
2014,05,01,07,12,15.30
2014,05,01,07,13,15.30
2014,05,01,07,14,15.40
2014,05,01,07,15,15.40
2014,05,01,07,16,15.50
2014,05,01,07,17,15.50
2014,05,01,07,18,15.50
2014,05,01,07,19,15.60
2014,05,01,07,20,15.60
2014,05,01,07,21,15.60
2014,05,01,07,22,15.70
2014,05,01,07,23,15.70
2014,05,01,07,24,15.80
2014,05,01,07,25,15.80
2014,05,01,07,26,15.80
2014,05,01,07,27,15.80
2014,05,01,07,28,15.80
2014,05,01,07,29,15.90
2014,05,01,07,30,15.90
2014,05,01,07,31,15.90
2014,05,01,07,32,15.90
2014,05,01,07,33,16.10
2014,05,01,07,34,16.10
2014,05,01,07,35,16.10
2014,05,01,07,36,16.10
2014,05,01,07,37,16.10
2014,05,01,07,38,16.10
2014,05,01,07,39,16.10
2014,05,01,07,40,16.10
2014,05,01,07,41,16.10
2014,05,01,07,42,16.10
2014,05,01,07,43,16.10
2014,05,01,07,44,16.10
2014,05,01,07,45,16.10
2014,05,01,07,46,16.10
2014,05,01,07,47,16.10
2014,05,01,07,48,16.10
2014,05,01,07,49,16.10
2014,05,01,07,50,16.10
2014,05,01,07,51,16.10
2014,05,01,07,52,16.20
2014,05,01,07,53,16.20
2014,05,01,07,54,16.20
2014,05,01,07,55,16.20
2014,05,01,07,56,16.20
2014,05,01,07,57,16.20
2014,05,01,07,58,16.20
2014,05,01,07,59,16.20
2014,05,01,08,00,16.20
2014,05,01,08,01,16.30
2014,05,01,08,02,16.30
2014,05,01,08,03,16.40
2014,05,01,08,04,16.40
2014,05,01,08,05,16.40
2014,05,01,08,06,16.40
2014,05,01,08,07,16.40
2014,05,01,08,08,16.60
2014,05,01,08,09,16.60
2014,05,01,08,10,16.70
2014,05,01,08,11,16.70
2014,05,01,08,12,16.70
2014,05,01,08,13,16.70
2014,05,01,08,14,16.70
2014,05,01,08,15,16.70
2014,05,01,08,16,16.80
2014,05,01,08,17,16.80
2014,05,01,08,18,16.90
2014,05,01,08,19,16.90
2014,05,01,08,20,16.90
2014,05,01,08,21,17.00
2014,05,01,08,22,17.00
2014,05,01,08,23,17.00
2014,05,01,08,24,17.10
2014,05,01,08,25,17.10
2014,05,01,08,26,17.20
2014,05,01,08,27,17.20
2014,05,01,08,28,17.20
2014,05,01,08,29,17.30
2014,05,01,08,30,17.30
2014,05,01,08,31,17.30
2014,05,01,08,32,17.30
2014,05,01,08,33,17.30
2014,05,01,08,34,17.40
2014,05,01,08,35,17.40
2014,05,01,08,36,17.50
2014,05,01,08,37,17.50
2014,05,01,08,38,17.50
2014,05,01,08,39,17.50
2014,05,01,08,40,17.60
2014,05,01,08,41,17.60
2014,05,01,08,42,17.60
2014,05,01,08,43,17.70
2014,05,01,08,44,17.70
2014,05,01,08,45,17.70
2014,05,01,08,46,17.70
2014,05,01,08,47,17.80
2014,05,01,08,48,17.80
2014,05,01,08,49,17.80
2014,05,01,08,50,17.90
2014,05,01,08,51,17.90
2014,05,01,08,52,17.90
2014,05,01,08,53,17.90
2014,05,01,08,54,18.00
2014,05,01,08,55,18.10
2014,05,01,08,56,18.10
2014,05,01,08,57,18.10
2014,05,01,08,58,18.10
2014,05,01,08,59,18.00
2014,05,01,09,00,17.90
2014,05,01,09,01,17.90
2014,05,01,09,02,17.90
2014,05,01,09,03,17.90
2014,05,01,09,04,18.00
2014,05,01,09,05,18.10
2014,05,01,09,06,18.10
2014,05,01,09,07,18.10
2014,05,01,09,08,18.10
2014,05,01,09,09,18.20
2014,05,01,09,10,18.20
2014,05,01,09,11,18.20
2014,05,01,09,12,18.20
2014,05,01,09,13,18.20
2014,05,01,09,14,18.20
2014,05,01,09,15,18.20
2014,05,01,09,16,18.20
2014,05,01,09,17,18.20
2014,05,01,09,18,18.20
2014,05,01,09,19,18.20
2014,05,01,09,20,18.20
2014,05,01,09,21,18.20
2014,05,01,09,22,18.20
2014,05,01,09,23,18.20
2014,05,01,09,24,18.20
2014,05,01,09,25,18.20
2014,05,01,09,26,18.20
2014,05,01,09,27,18.20
2014,05,01,09,28,18.20
2014,05,01,09,29,18.20
2014,05,01,09,30,18.20
2014,05,01,09,31,18.20
2014,05,01,09,32,18.20
2014,05,01,09,33,18.20
2014,05,01,09,34,18.20
2014,05,01,09,35,18.20
2014,05,01,09,36,18.20
2014,05,01,09,37,18.20
2014,05,01,09,38,18.30
2014,05,01,09,39,18.40
2014,05,01,09,40,18.50
2014,05,01,09,41,18.50
2014,05,01,09,42,18.50
2014,05,01,09,43,18.50
2014,05,01,09,44,18.50
2014,05,01,09,45,18.50
2014,05,01,09,46,18.50
2014,05,01,09,47,18.50
2014,05,01,09,48,18.50
2014,05,01,09,49,18.50
2014,05,01,09,50,18.60
2014,05,01,09,51,18.60
2014,05,01,09,52,18.60
2014,05,01,09,53,18.60
2014,05,01,09,54,18.60
2014,05,01,09,55,18.60
2014,05,01,09,56,18.60
2014,05,01,09,57,18.70
2014,05,01,09,58,18.70
2014,05,01,09,59,18.80
2014,05,01,10,00,18.80
2014,05,01,10,01,18.90
2014,05,01,10,02,18.90
2014,05,01,10,03,19.00
2014,05,01,10,04,19.10
2014,05,01,10,05,19.20
2014,05,01,10,06,19.30
2014,05,01,10,07,19.30
2014,05,01,10,08,19.40
2014,05,01,10,09,19.40
2014,05,01,10,10,19.30
2014,05,01,10,11,19.30
2014,05,01,10,12,19.40
2014,05,01,10,13,19.40
2014,05,01,10,14,19.40
2014,05,01,10,15,19.50
2014,05,01,10,16,19.50
2014,05,01,10,17,19.50
2014,05,01,10,18,19.50
2014,05,01,10,19,19.60
2014,05,01,10,20,19.60
2014,05,01,10,21,19.60
2014,05,01,10,22,19.60
2014,05,01,10,23,19.60
2014,05,01,10,24,19.70
2014,05,01,10,25,19.80
2014,05,01,10,26,19.90
2014,05,01,10,27,19.90
2014,05,01,10,28,19.90
2014,05,01,10,29,19.90
2014,05,01,10,30,19.90
2014,05,01,10,31,19.80
2014,05,01,10,32,19.80
2014,05,01,10,33,19.80
2014,05,01,10,34,19.80
2014,05,01,10,35,19.80
2014,05,01,10,36,19.80
2014,05,01,10,37,19.80
2014,05,01,10,38,19.80
2014,05,01,10,39,19.80
2014,05,01,10,40,19.80
2014,05,01,10,41,19.90
2014,05,01,10,42,20.00
2014,05,01,10,43,20.10
2014,05,01,10,44,20.20
2014,05,01,10,45,20.20
2014,05,01,10,46,20.20
2014,05,01,10,47,20.20
2014,05,01,10,48,20.30
2014,05,01,10,49,20.30
2014,05,01,10,50,20.40
2014,05,01,10,51,20.40
2014,05,01,10,52,20.40
2014,05,01,10,53,20.50
2014,05,01,10,54,20.60
2014,05,01,10,55,20.60
2014,05,01,10,56,20.70
2014,05,01,10,57,20.80
2014,05,01,10,58,20.90
2014,05,01,10,59,20.90
2014,05,01,11,00,21.00
2014,05,01,11,01,21.10
2014,05,01,11,02,21.10
2014,05,01,11,03,21.10
2014,05,01,11,04,21.10
2014,05,01,11,05,21.00
2014,05,01,11,06,21.00
2014,05,01,11,07,21.10
2014,05,01,11,08,21.10
2014,05,01,11,09,21.10
2014,05,01,11,10,21.10
2014,05,01,11,11,21.20
2014,05,01,11,12,21.20
2014,05,01,11,13,21.20
2014,05,01,11,14,21.20
2014,05,01,11,15,21.20
2014,05,01,11,16,21.20
2014,05,01,11,17,21.10
2014,05,01,11,18,21.00
2014,05,01,11,19,21.00
2014,05,01,11,20,21.00
2014,05,01,11,21,20.90
2014,05,01,11,22,21.00
2014,05,01,11,23,21.00
2014,05,01,11,24,21.00
2014,05,01,11,25,21.10
2014,05,01,11,26,21.10
2014,05,01,11,27,21.20
2014,05,01,11,28,21.30
2014,05,01,11,29,21.30
2014,05,01,11,30,21.30
2014,05,01,11,31,21.30
2014,05,01,11,32,21.20
2014,05,01,11,33,21.20
2014,05,01,11,34,21.10
2014,05,01,11,35,21.10
2014,05,01,11,36,21.00
2014,05,01,11,37,21.00
2014,05,01,11,38,21.00
2014,05,01,11,39,21.00
2014,05,01,11,40,21.00
2014,05,01,11,41,21.10
2014,05,01,11,42,21.10
2014,05,01,11,43,21.20
2014,05,01,11,44,21.30
2014,05,01,11,45,21.30
2014,05,01,11,46,21.30
2014,05,01,11,47,21.30
2014,05,01,11,48,21.30
2014,05,01,11,49,21.30
2014,05,01,11,50,21.30
2014,05,01,11,51,21.30
2014,05,01,11,52,21.40
2014,05,01,11,53,21.40
2014,05,01,11,54,21.50
2014,05,01,11,55,21.60
2014,05,01,11,56,21.60
2014,05,01,11,57,21.60
2014,05,01,11,58,21.60
2014,05,01,11,59,21.60
2014,05,01,12,00,21.60
2014,05,01,12,01,21.60
2014,05,01,12,02,21.60
2014,05,01,12,03,21.60
2014,05,01,12,04,21.60
2014,05,01,12,05,21.60
2014,05,01,12,06,21.60
2014,05,01,12,07,21.60
2014,05,01,12,08,21.60
2014,05,01,12,09,21.60
2014,05,01,12,10,21.60
2014,05,01,12,11,21.60
2014,05,01,12,12,21.60
2014,05,01,12,13,21.60
2014,05,01,12,14,21.60
2014,05,01,12,15,21.70
2014,05,01,12,16,21.90
2014,05,01,12,17,22.00
2014,05,01,12,18,22.10
2014,05,01,12,19,22.30
2014,05,01,12,20,22.40
2014,05,01,12,21,22.50
2014,05,01,12,22,22.60
2014,05,01,12,23,22.70
2014,05,01,12,24,22.80
2014,05,01,12,25,22.90
2014,05,01,12,26,22.90
2014,05,01,12,27,22.90
2014,05,01,12,28,22.90
2014,05,01,12,29,22.90
2014,05,01,12,30,23.10
2014,05,01,12,31,23.10
2014,05,01,12,32,23.20
2014,05,01,12,33,23.10
2014,05,01,12,34,23.10
2014,05,01,12,35,23.10
2014,05,01,12,36,23.10
2014,05,01,12,37,23.10
2014,05,01,12,38,23.10
2014,05,01,12,39,23.20
2014,05,01,12,40,23.30
2014,05,01,12,41,23.30
2014,05,01,12,42,23.30
2014,05,01,12,43,23.40
2014,05,01,12,44,23.50
2014,05,01,12,45,23.60
2014,05,01,12,46,23.70
2014,05,01,12,47,23.70
2014,05,01,12,48,23.70
2014,05,01,12,49,23.70
2014,05,01,12,50,23.70
2014,05,01,12,51,23.70
2014,05,01,12,52,23.70
2014,05,01,12,53,23.70
2014,05,01,12,54,23.70
2014,05,01,12,55,23.70
2014,05,01,12,56,23.70
2014,05,01,12,57,23.70
2014,05,01,12,58,23.70
2014,05,01,12,59,23.70
2014,05,01,13,00,23.70
2014,05,01,13,01,23.80
2014,05,01,13,02,23.80
2014,05,01,13,03,23.80
2014,05,01,13,04,23.80
2014,05,01,13,05,23.80
2014,05,01,13,06,23.80
2014,05,01,13,07,23.90
2014,05,01,13,08,23.90
2014,05,01,13,09,23.90
2014,05,01,13,10,23.90
2014,05,01,13,11,23.80
2014,05,01,13,12,23.90
2014,05,01,13,13,23.90
2014,05,01,13,14,23.80
2014,05,01,13,15,23.80
2014,05,01,13,16,23.80
2014,05,01,13,17,23.70
2014,05,01,13,18,23.70
2014,05,01,13,19,23.70
2014,05,01,13,20,23.70
2014,05,01,13,21,23.70
2014,05,01,13,22,23.70
2014,05,01,13,23,23.70
2014,05,01,13,24,23.70
2014,05,01,13,25,23.80
2014,05,01,13,26,23.80
2014,05,01,13,27,23.80
2014,05,01,13,28,23.80
2014,05,01,13,29,23.90
2014,05,01,13,30,23.90
2014,05,01,13,31,23.90
2014,05,01,13,32,23.90
2014,05,01,13,33,23.90
2014,05,01,13,34,23.90
2014,05,01,13,35,23.90
2014,05,01,13,36,23.80
2014,05,01,13,37,23.80
2014,05,01,13,38,23.80
2014,05,01,13,39,23.80
2014,05,01,13,40,23.80
2014,05,01,13,41,23.80
2014,05,01,13,42,23.80
2014,05,01,13,43,23.90
2014,05,01,13,44,23.90
2014,05,01,13,45,23.90
2014,05,01,13,46,23.90
2014,05,01,13,47,24.00
2014,05,01,13,48,24.10
2014,05,01,13,49,24.10
2014,05,01,13,50,24.10
2014,05,01,13,51,24.10
2014,05,01,13,52,24.10
2014,05,01,13,53,24.10
2014,05,01,13,54,24.10
2014,05,01,13,55,24.10
2014,05,01,13,56,24.10
2014,05,01,13,57,24.10
2014,05,01,13,58,24.10
2014,05,01,13,59,24.10
2014,05,01,14,00,24.10
2014,05,01,14,01,24.10
2014,05,01,14,02,24.10
2014,05,01,14,03,24.10
2014,05,01,14,04,24.10
2014,05,01,14,05,24.10
2014,05,01,14,06,24.10
2014,05,01,14,07,24.20
2014,05,01,14,08,24.30
2014,05,01,14,09,24.30
2014,05,01,14,10,24.30
2014,05,01,14,11,24.30
2014,05,01,14,12,24.40
2014,05,01,14,13,24.40
2014,05,01,14,14,24.40
2014,05,01,14,15,24.40
2014,05,01,14,16,24.50
2014,05,01,14,17,24.50
2014,05,01,14,18,24.50
2014,05,01,14,19,24.60
2014,05,01,14,20,24.60
2014,05,01,14,21,24.60
2014,05,01,14,22,24.70
2014,05,01,14,23,24.70
2014,05,01,14,24,24.70
2014,05,01,14,25,24.70
2014,05,01,14,26,24.70
2014,05,01,14,27,24.70
2014,05,01,14,28,24.70
2014,05,01,14,29,24.70
2014,05,01,14,30,24.70
2014,05,01,14,31,24.70
2014,05,01,14,32,24.70
2014,05,01,14,33,24.80
2014,05,01,14,34,24.80
2014,05,01,14,35,24.80
2014,05,01,14,36,24.80
2014,05,01,14,37,24.80
2014,05,01,14,38,24.80
2014,05,01,14,39,24.80
2014,05,01,14,40,24.90
2014,05,01,14,41,24.90
2014,05,01,14,42,24.90
2014,05,01,14,43,24.90
2014,05,01,14,44,24.90
2014,05,01,14,45,25.00
2014,05,01,14,46,25.00
2014,05,01,14,47,24.90
2014,05,01,14,48,24.90
2014,05,01,14,49,24.90
2014,05,01,14,50,24.90
2014,05,01,14,51,24.90
2014,05,01,14,52,24.90
2014,05,01,14,53,24.90
2014,05,01,14,54,24.80
2014,05,01,14,55,24.80
2014,05,01,14,56,24.80
2014,05,01,14,57,24.80
2014,05,01,14,58,24.80
2014,05,01,14,59,24.90
2014,05,01,15,00,24.90
2014,05,01,15,01,24.90
2014,05,01,15,02,24.90
2014,05,01,15,03,24.90
2014,05,01,15,04,25.00
2014,05,01,15,05,25.00
2014,05,01,15,06,25.10
2014,05,01,15,07,25.20
2014,05,01,15,08,25.20
2014,05,01,15,09,25.20
2014,05,01,15,10,25.30
2014,05,01,15,11,25.30
2014,05,01,15,12,25.30
2014,05,01,15,13,25.30
2014,05,01,15,14,25.30
2014,05,01,15,15,25.30
2014,05,01,15,16,25.30
2014,05,01,15,17,25.30
2014,05,01,15,18,25.30
2014,05,01,15,19,25.30
2014,05,01,15,20,25.30
2014,05,01,15,21,25.40
2014,05,01,15,22,25.50
2014,05,01,15,23,25.50
2014,05,01,15,24,25.60
2014,05,01,15,25,25.60
2014,05,01,15,26,25.60
2014,05,01,15,27,25.50
2014,05,01,15,28,25.10
2014,05,01,15,29,24.40
2014,05,01,15,30,23.60
2014,05,01,15,31,22.70
2014,05,01,15,32,22.10
2014,05,01,15,33,21.50
2014,05,01,15,34,20.90
2014,05,01,15,35,20.30
2014,05,01,15,36,19.90
2014,05,01,15,37,19.60
2014,05,01,15,38,19.20
2014,05,01,15,39,19.10
2014,05,01,15,40,19.10
2014,05,01,15,41,19.00
2014,05,01,15,42,18.90
2014,05,01,15,43,18.90
2014,05,01,15,44,18.90
2014,05,01,15,45,18.90
2014,05,01,15,46,18.90
2014,05,01,15,47,18.90
2014,05,01,15,48,18.90
2014,05,01,15,49,18.90
2014,05,01,15,50,18.90
2014,05,01,15,51,19.10
2014,05,01,15,52,19.10
2014,05,01,15,53,19.10
2014,05,01,15,54,19.20
2014,05,01,15,55,19.30
2014,05,01,15,56,19.30
2014,05,01,15,57,19.10
2014,05,01,15,58,19.10
2014,05,01,15,59,19.10
2014,05,01,16,00,19.00
2014,05,01,16,01,18.80
2014,05,01,16,02,18.70
2014,05,01,16,03,18.70
2014,05,01,16,04,18.70
2014,05,01,16,05,18.70
2014,05,01,16,06,18.70
2014,05,01,16,07,18.70
2014,05,01,16,08,18.70
2014,05,01,16,09,18.80
2014,05,01,16,10,18.70
2014,05,01,16,11,18.70
2014,05,01,16,12,18.70
2014,05,01,16,13,18.70
2014,05,01,16,14,18.80
2014,05,01,16,15,18.80
2014,05,01,16,16,18.90
2014,05,01,16,17,19.00
2014,05,01,16,18,19.10
2014,05,01,16,19,19.10
2014,05,01,16,20,19.20
2014,05,01,16,21,19.20
2014,05,01,16,22,19.10
2014,05,01,16,23,19.10
2014,05,01,16,24,19.10
2014,05,01,16,25,19.20
2014,05,01,16,26,19.20
2014,05,01,16,27,19.20
2014,05,01,16,28,19.30
2014,05,01,16,29,19.40
2014,05,01,16,30,19.50
2014,05,01,16,31,19.50
2014,05,01,16,32,19.40
2014,05,01,16,33,19.40
2014,05,01,16,34,19.40
2014,05,01,16,35,19.40
2014,05,01,16,36,19.30
2014,05,01,16,37,19.30
2014,05,01,16,38,19.20
2014,05,01,16,39,19.30
2014,05,01,16,40,19.40
2014,05,01,16,41,19.50
2014,05,01,16,42,19.50
2014,05,01,16,43,19.60
2014,05,01,16,44,19.60
2014,05,01,16,45,19.60
2014,05,01,16,46,19.70
2014,05,01,16,47,19.70
2014,05,01,16,48,19.80
2014,05,01,16,49,19.80
2014,05,01,16,50,19.90
2014,05,01,16,51,19.90
2014,05,01,16,52,19.90
2014,05,01,16,53,19.90
2014,05,01,16,54,19.90
2014,05,01,16,55,20.10
2014,05,01,16,56,20.10
2014,05,01,16,57,20.10
2014,05,01,16,58,20.20
2014,05,01,16,59,20.20
2014,05,01,17,00,20.20
2014,05,01,17,01,20.20
2014,05,01,17,02,20.10
2014,05,01,17,03,20.10
2014,05,01,17,04,20.10
2014,05,01,17,05,20.10
2014,05,01,17,06,20.10
2014,05,01,17,07,20.00
2014,05,01,17,08,20.00
2014,05,01,17,09,20.10
2014,05,01,17,10,20.20
2014,05,01,17,11,20.20
2014,05,01,17,12,20.30
2014,05,01,17,13,20.40
2014,05,01,17,14,20.50
2014,05,01,17,15,20.60
2014,05,01,17,16,20.70
2014,05,01,17,17,20.80
2014,05,01,17,18,20.90
2014,05,01,17,19,21.00